STARLINK-36405, 67921

Orbit data source: Space-Track

STARLINK-36405, 67921 is a payload satellite owned by SpaceX/Seattle (US) in LEO that was launched on Sun, 22 Feb 2026 UTC via an FALCON 9 launch vehicle from the Air Force Eastern Test Range (AFETR). Payload-class satellites include a variety of spacecraft equipped with specific instruments for various scientific and technological missions. These include communications satellites like Starlink; space stations such as the ISS; scientific satellites like the Hubble; Earth observation satellites from companies like Planet Labs, Umbra, and HawkEye 360; GPS; miniature CubeSats for education and research; and military/defense satellites.

Loading next visibility...
Identifier
67921, 2026-036T
Orbit
LEO
Country
Flag of USUS
Related business
Manufacturer
SpaceX/Seattle
Mission
Operational Commercial Communications
Bus & Motor
STARLINK V2MO, Unknown motor
Mass
575 kg wet, ~530 kg dry
Launch date (UTC)
2026-02-22 (4 months ago)
Launch vehicle
FALCON 9
Launch site
Air Force Eastern Test Range (AFETR)
Object type
Payload
Rocket body
Debris
Shape & HBR
Box + 2 Pan, 17.7 m
Radar Cross Section
36.964 m², Large (>1 m²)

Expand to show TLE details & history
Last TLE update: 14 hours ago

TLE from 14 hours ago
0 STARLINK-36405
1 67921U 26036T   26171.31270863  .00004746  00000-0  18185-3 0  9996
2 67921  43.0053  26.0016 0000904 284.3317  75.7434 15.27582908 19410
Epoch: 2026-06-20T07:30Z
TLE epoch observation values (Epoch: 2026-06-20T07:30:18.025Z)
Latitude
-0.00005°
Longitude
4.89731°
Altitude
482.664 km
Speed
7.626 km/s
True Right ascension
01h 44m 00s
True Declination
0° 00' 00"
Sunlit
Object was in daylight at epoch
Visualization orbit readout
Latitude
Unknown
Longitude
Unknown
Altitude
Unknown
Speed
Unknown
Apparent Right ascension
Unknown
Apparent Declination
Unknown
Sunlit
N/A
Visualization observer readout
Local Sidereal Time
08:41:35
Azimuth
Unknown
Elevation
Unknown
Doppler factor
Unknown
Orbital elements
Apogee altitude
485.605 km
Perigee altitude
484.364 km
Semi-major axis
6,863.122 km
Eccentricity
0.00009
Inclination
43.0053°
RAAN
26.0016°
Arg. of periapsis
284.3317°
True anomaly
75.75344°
Mean anomaly
75.7434°
Eccentric anomaly
75.74842°
Mean motion
3.81734 °/min
Orbital period
94.31 mins
BSTAR
0.00018185
Loading maneuver chart data...
Computing Atmospheric mass density...
Loading historical data...
Loading historical data...
Loading historical data...
Loading historical data...
Loading historical data...
Loading historical data...
Loading historical data...

Documentation

Showing up to 5 results
|